星链-1918 (STARLINK-1918 )

导读 | 星芒AI

STARLINK-1918 是 SpaceX Starlink 项目中的一颗低轨通信卫星,属于第 5 批次发射的星链卫星群。该卫星于 2020 年 11 月 19 日由猎鹰 9 号火箭送入近地轨道,旨在为全球用户提供高速互联网服务。它运行在约 550 公里的高度,设计寿命约 5 年,并具备自动避障和激光通信能力。STARLINK-1918 与其他星链卫星协同工作,提升网络覆盖与连接稳定性。

基本信息
目录编号:
46768
目录名称:
STARLINK-1918
国际标识:
2020-074AF
轨道中心:
EARTH
卫星名称:
星链-1918
卫星全名:
星链-1918 (STARLINK-1918 )
卫星状态:
已陨落 最后检测时间 2024-01-08
发射日期:
2020-10-24 UTC
国别 :
美国 (US)
星等 :
--
轨道信息
数据来源 国际轨道数据
星历时间: 2025-01-08T18:51:16+0800
轨道信息已过期342天
半长轴: 6513.759km
偏心率: 0.0029132
轨道倾角: 53.022°
近地点辐角 342.039°
升交点赤经 52.611°
平近点角 50.003°
近地点: 116.648km
远地点: 154.6km
周期: 87.198分钟
每日圈数: 16.514114
详细信息
固有亮度:
5
最大亮度:
2.5
卫星平台:
Starlink V1.0
覆盖范围:
全球
运营商:
太空探索技术公司
运营商所在国:
美国
制造商(研发单位):
太空探索技术公司
制造商所在国:
美国
使用方式:
暂无
卫星简介
星链(Starlink)计划是由太空探索技术公司(SpaceX)提出的一个巨型低轨卫星互联网星座项目,计划在2019年至2024年间在太空搭建由约1.2万颗卫星组成的“星链”网络,其中1584颗将部署在地球上空550千米处的近地轨道,并从2020年开始工作。该卫星仍在工作。